Disclaimer

Please do not use the information listed here in-flight or in-navigation, as they are not provided to us by the airports but are provided by volunteers, so they might be outdated.

Search


Regions


Airport information page

Radio informations:
Approach (APP) - 120.8 MHz

Airport informations:
Latitude: 18° 52' 58.24" S
Longitude: 048° 13' 32.14" W
Elevation: 3094 feet - 943 meters
Operating hours: Remarks
Operating agency: Civil government, landing fees and diplomatic clearance may be required
Timezone: UTC-3(-2DT)
Fuel: Jet A1, without icing nhibitor.

100/130 octane gasoline, leaded, MIL-L-5572F (GREEN)

Runway information:
04/22 - 6398 x 148 feet< - >1950 x 45 meters

Recent METARs:
SBUL 200400Z VRB07KT 9999 TS VCSH FEW040 FEW045CB 24/18 Q1018
SBUL 200600Z 23010KT 9999 -RA VCTS FEW030 FEW035CB 21/18 Q1017 RETS
SBUL 200600Z 23010KT 9999 -RA VCTS FEW030 FEW035CB 21/18 Q1017 RETS

Airport on the map: